JCSAT-3A 1 29272U 06033A 21060.69032545 -.00000353 00000-0 00000-0 0 9999 2 29272 0.0088 147.8841 0001755 192.7737 195.5465 1.00272499 28354 SYRACUSE 3B 1 29273U 06033B 21060.67569244 -.00000051 00000-0 00000-0 0 9994 2 29273 0.0099 148.2168 0003751 203.2200 46.2776 1.00271863 53310 ARIANE 5 DEB [SYLDA] 1 29274U 06033C 21060.52443253 .00001151 00000-0 58970-3 0 9993 2 29274 5.8567 95.0538 5927912 170.7042 208.9999 4.08788883166624 ARIANE 5 R/B 1 29275U 06033D 21060.02634558 .00000195 00000-0 18193-3 0 9999 2 29275 6.3555 305.6441 7095893 114.2817 331.6745 2.49618072127502